{"data":{"norad_id":67871,"intl_designator":"2026-034X","name":"STARLINK-36769","alt_names":[],"object_type":"PAYLOAD","status":"ACTIVE","operator":null,"country":"US","launch_date":"2026-02-20","launch_site_code":"AFETR","launch_vehicle":null,"mission":null,"orbit_class":"UNKNOWN","rcs_meters":null,"size_class":null,"mass_kg":null,"dimensions":null,"purposes":["comms"],"wikipedia_slug":null,"has_3d_model":false,"image_url":null,"decayed_at":null,"tle_current":{"epoch":"2026-09-19T21:57:18.993024Z","epoch_age_seconds":113818,"freshness":"FRESH","line1":"1 67871U 26034X   26262.91480316  .00017461  00000+0  52660-3 0  9994","line2":"2 67871  53.1582  20.5798 0001130  92.9779 267.1353 15.34406603 33795","mean_motion":15.34406603,"eccentricity":0.000113,"inclination_deg":53.1582,"raan_deg":20.5798,"arg_perigee_deg":92.9779,"mean_anomaly_deg":267.1353,"bstar":0.0005266,"rev_number":3379,"period_min":93.847354227007,"perigee_km":461.9106020405,"apogee_km":463.45662749943,"semimajor_km":6840.82061477,"source":"CELESTRAK","updated_at":"2026-09-20T09:00:43.692898Z"}}}